Wind_Speed
25 26 27 28 29 30 33 36 41 46 47 48 48 47 47 47 50 49 53 48 47 46 41 37 30 27 22 20 15 18 15 10 7 3 2 4 4 7 15 19 17 22 26 21 22
29 30 31 32 34 35 35 37 40 44 49 52 52 51 51 50 50 52 55 52 51 52 46 43 37 33 27 25 21 15 17 11 10 6 7 4 6 7 10 18 16 20 24 22 17
33 34 36 37 37 38 40 40 41 44 48 52 55 55 54 54 53 53 56 59 53 54 52 47 45 39 33 31 30 25 23 12 13 12 8 4 6 1 3 14 13 16 20 23 20
25 28 32 37 41 43 44 44 45 46 47 50 54 58 59 58 56 56 59 60 59 57 53 52 47 43 38 35 33 31 23 15 14 13 5 6 10 3 3 8 12 13 15 20 21
23 23 23 26 32 41 48 50 50 50 50 51 52 57 60 58 60 61 61 61 63 62 55 56 52 48 44 39 38 35 32 24 19 16 6 6 9 11 7 2 4 8 11 14 16
23 22 24 25 27 30 37 48 54 56 55 55 56 56 58 60 63 62 64 64 65 65 61 58 57 57 47 42 41 37 34 32 28 23 15 14 11 10 9 5 3 4 7 9 12
26 27 28 26 25 26 29 34 43 52 59 61 60 60 57 59 66 69 67 67 67 67 67 65 58 59 56 51 46 44 40 37 36 32 24 18 18 11 5 3 8 1 3 5 9
27 28 28 27 28 24 25 28 32 40 49 60 65 65 62 64 64 67 68 70 69 70 70 67 64 61 59 58 54 53 50 43 40 37 33 23 25 23 20 9 7 6 0 2 7
22 24 26 29 30 27 28 28 29 33 42 48 58 67 69 69 69 67 69 71 73 72 72 71 68 65 61 59 58 56 56 48 45 39 39 38 29 23 20 15 13 10 6 3 1
27 23 23 26 28 29 31 28 27 27 34 40 49 58 70 75 74 71 69 71 74 76 74 72 72 68 65 63 63 63 59 53 49 44 41 39 37 31 26 21 19 15 11 5 6
31 28 26 28 27 31 33 31 31 33 30 33 40 50 61 70 78 77 74 71 74 76 77 75 73 72 71 70 68 68 62 58 52 49 45 41 37 30 29 26 22 19 16 10 8
32 33 31 30 30 34 34 34 32 30 31 33 39 42 54 65 75 80 80 76 73 76 77 79 78 79 76 72 72 71 67 63 59 53 51 48 47 37 34 29 26 25 22 15 12
35 32 30 33 30 35 34 36 28 30 31 34 36 39 44 57 68 72 83 83 80 76 78 80 86 82 79 76 72 72 71 70 66 60 56 55 53 47 43 38 31 31 25 18 12
40 37 32 36 31 33 38 36 34 29 30 30 34 39 42 43 60 64 75 88 85 82 79 82 85 85 83 79 76 73 78 75 70 64 60 58 55 53 48 43 39 36 28 23 17
46 36 34 35 32 37 38 34 30 32 31 30 30 35 39 38 49 58 65 83 91 86 83 83 86 86 85 86 82 84 82 79 75 68 66 60 55 53 49 47 41 38 32 28 25
50 44 35 33 32 35 37 32 30 33 31 29 30 32 34 36 35 48 58 71 88 91 88 86 85 85 86 91 88 94 86 83 77 73 68 63 57 54 49 51 44 41 38 32 28
44 39 39 37 36 34 36 36 34 37 31 31 32 33 33 34 34 39 49 66 79 90 93 90 87 86 89 90 93 94 89 86 81 75 69 68 61 56 54 51 48 45 44 40 33
58 41 41 40 36 36 37 28 37 32 30 30 34 36 37 36 35 35 42 54 73 85 92 93 91 88 88 90 91 95 93 89 83 77 74 74 65 65 62 60 56 51 48 46 36
57 44 37 35 34 37 36 35 39 34 33 33 34 39 38 39 38 37 38 46 53 75 90 95 96 94 91 89 92 94 95 91 89 83 80 77 71 71 66 62 59 55 52 49 46
54 42 34 35 33 31 34 37 38 39 38 39 34 31 34 41 40 39 41 44 52 60 79 97 99 98 96 95 94 93 95 94 90 87 82 80 76 75 70 65 64 60 58 56 52
61 41 35 31 29 28 31 31 37 35 36 35 30 29 32 40 45 42 41 46 52 58 64 87 101 103 103 102 98 94 93 94 92 89 86 83 80 79 74 69 67 63 58 55 52
54 35 28 21 28 30 28 31 33 34 31 28 34 35 34 35 43 48 47 47 54 59 66 69 89 103 105 105 103 101 96 93 91 87 87 86 85 82 77 74 71 67 62 57 55
50 31 18 19 24 25 27 26 29 33 35 36 39 41 42 42 42 47 51 53 59 66 70 72 74 89 102 107 108 106 101 96 91 89 86 85 86 84 80 78 74 70 64 61 59
51 34 24 24 22 22 24 27 33 39 40 43 46 44 47 50 44 45 49 53 61 69 75 80 78 85 97 109 111 110 105 100 95 89 87 82 87 86 82 78 74 71 67 63 64
55 40 33 28 28 28 27 34 39 43 46 48 46 45 50 49 48 46 47 51 59 67 73 78 83 87 96 108 112 112 108 106 101 94 86 83 85 86 82 78 72 69 66 65 66
61 42 36 32 34 29 30 38 45 47 48 49 44 50 47 50 50 52 49 50 56 62 67 75 81 88 93 105 113 114 113 110 104 98 93 90 87 86 79 76 72 69 68 66 65
64 45 38 36 30 36 40 40 39 40 45 48 51 48 49 54 55 51 49 47 55 61 66 73 79 89 95 98 107 115 119 113 107 102 99 95 90 86 75 71 66 65 64 64 62
Wind_Direction
250 245 241 240 238 233 229 228 225 225 226 223 221 221 221 219 218 216 214 216 217 217 215 213 205 207 206 189 181 201 170 215 236 359 335 90 82 61 60 61 58 48 47 61 59
254 251 247 244 241 240 237 231 230 226 227 227 227 224 223 222 219 219 214 215 218 215 220 219 215 211 212 200 189 197 201 193 171 162 263 115 102 64 45 55 53 49 53 57 65
263 258 253 250 246 243 243 239 235 233 230 228 227 228 225 222 221 220 218 216 218 216 221 219 220 218 212 206 207 187 176 170 180 214 203 186 134 51 3 60 60 56 40 55 56
285 275 265 257 253 249 245 243 241 238 234 232 231 228 228 223 221 221 220 219 217 217 218 222 222 218 210 213 214 193 191 201 188 190 187 164 195 160 126 58 53 50 50 42 54
296 292 280 269 260 253 246 243 242 240 238 236 233 233 229 227 225 221 221 220 220 219 217 223 223 221 215 216 218 216 213 214 204 209 151 136 193 159 139 342 33 43 40 43 42
306 302 297 289 280 268 256 248 242 240 239 237 236 234 232 229 226 223 221 221 222 220 220 221 223 226 220 214 217 215 215 215 210 227 222 228 239 154 167 222 259 17 55 46 39
307 303 298 290 288 280 274 255 248 243 240 237 236 235 233 231 228 225 223 221 222 222 220 222 220 223 225 214 215 220 212 210 220 218 199 208 212 219 236 217 230 218 47 41 40
310 303 298 293 290 282 285 270 253 244 242 239 237 235 232 233 232 229 224 223 221 223 223 219 219 220 225 228 217 219 224 211 215 222 222 214 225 243 241 216 223 224 291 41 6
333 310 303 296 289 284 281 278 266 253 245 242 239 236 232 233 232 230 226 224 222 222 222 221 220 220 221 225 226 224 223 214 217 223 225 233 230 238 230 223 222 229 217 258 358
341 323 307 303 292 288 285 276 275 270 252 246 240 239 235 231 232 229 229 224 223 221 221 221 222 219 220 222 225 224 224 219 221 222 224 229 235 233 233 240 222 226 234 231 297
334 328 322 306 298 292 286 281 276 273 268 251 242 240 235 234 231 230 228 226 224 223 220 220 221 222 218 219 223 225 223 220 218 220 221 223 225 227 236 249 222 226 234 240 253
331 329 317 310 295 295 293 285 283 271 267 261 246 241 237 235 233 228 227 227 225 222 221 219 220 221 220 220 222 226 223 222 220 219 217 221 223 219 227 230 229 236 230 229 260
327 325 316 312 292 286 286 285 280 278 277 264 252 241 242 237 237 230 226 226 225 223 222 220 220 221 221 220 222 223 226 223 223 218 217 219 223 229 231 231 228 235 231 233 246
329 320 311 311 289 281 281 279 279 283 286 274 255 241 241 242 239 232 225 224 223 224 220 221 220 221 222 220 221 223 224 225 223 220 215 219 223 225 231 233 227 230 235 238 242
333 321 316 298 296 277 272 274 279 289 286 285 259 244 242 248 241 237 227 222 222 221 223 220 222 219 221 223 219 223 225 225 226 221 224 220 221 225 226 230 225 233 235 242 246
332 324 308 306 294 275 275 268 275 287 289 285 267 252 248 246 242 239 230 223 222 220 221 223 222 221 221 223 223 224 224 227 226 227 226 224 221 223 223 228 229 225 231 231 242
331 327 316 300 293 275 273 265 278 277 277 277 279 257 249 246 243 238 228 223 222 221 220 222 224 221 221 222 223 226 225 226 227 224 224 227 223 224 224 227 230 229 227 228 235
329 326 318 302 284 271 269 253 271 272 268 270 273 276 258 246 245 238 234 225 223 222 220 221 223 224 224 223 223 226 225 225 225 224 221 224 225 227 223 226 229 231 228 228 229
333 324 308 295 281 268 270 252 271 261 266 271 268 273 265 250 243 243 240 233 225 225 220 220 222 223 224 224 224 226 227 224 223 222 222 222 222 230 227 228 231 228 226 232 234
332 323 304 289 279 273 266 255 266 270 267 267 266 259 250 245 242 241 240 236 228 223 222 219 222 222 222 225 225 225 227 227 224 222 222 224 224 228 227 228 231 232 232 234 233
336 322 307 288 276 271 263 268 273 272 268 264 265 265 250 243 245 244 243 240 235 225 224 221 221 221 222 224 224 226 227 226 226 223 222 221 223 227 226 225 228 233 235 236 231
338 320 310 292 277 262 267 262 270 277 270 268 281 280 262 249 246 243 243 241 236 233 227 223 223 223 223 224 225 224 226 228 227 225 224 223 224 226 228 227 226 228 232 234 238
340 326 308 310 283 270 262 268 285 289 289 281 288 290 281 271 266 252 245 241 233 228 228 225 225 224 223 224 225 225 226 227 227 224 225 224 227 227 228 228 227 227 227 234 238
343 335 317 318 302 287 280 287 292 288 286 292 294 287 279 276 265 255 245 237 231 230 231 227 223 224 223 222 224 225 225 226 227 226 225 223 225 228 227 229 228 227 228 229 235
345 332 321 311 309 298 294 294 293 290 293 294 286 284 282 276 270 260 253 242 233 231 231 230 226 224 223 222 221 223 224 225 226 226 225 225 225 226 227 228 229 229 229 228 233
343 332 321 312 300 303 293 285 288 295 289 289 289 290 285 278 271 266 258 245 234 228 227 226 225 222 224 224 222 221 222 224 224 225 225 225 226 225 225 227 228 229 230 232 233
342 330 319 310 305 292 291 294 299 294 289 288 291 289 285 280 274 267 258 244 232 226 226 222 222 222 218 222 223 221 221 222 222 223 225 226 226 227 222 226 228 231 232 235 236
Height
10913 10914 10915 10916 10916 10917 10918 10920 10924 10927 10931 10935 10939 10942 10946 10951 10956 10962 10967 10973 10978 10982 10987 10990 10995 10999 11003 11008 11011 11013 11015 11018 11019 11022 11024 11022 11022 11024 11022 11018 11016 11014 11010 11007 11005
10906 10907 10909 10910 10911 10911 10913 10914 10915 10918 10921 10925 10929 10934 10938 10943 10950 10955 10962 10966 10971 10978 10983 10985 10990 10995 11000 11005 11009 11011 11013 11016 11018 11021 11023 11023 11024 11025 11025 11020 11020 11017 11013 11010 11009
10899 10899 10900 10902 10904 10905 10906 10908 10909 10911 10913 10915 10920 10923 10928 10934 10941 10946 10952 10958 10965 10972 10977 10979 10985 10991 10998 11002 11007 11010 11012 11015 11016 11020 11022 11023 11024 11024 11026 11021 11021 11019 11018 11014 11012
10892 10892 10891 10891 10893 10895 10897 10898 10900 10902 10905 10907 10909 10912 10918 10924 10933 10937 10943 10949 10958 10965 10970 10974 10978 10985 10994 10999 11003 11008 11010 11014 11015 11017 11021 11022 11023 11025 11024 11023 11023 11021 11019 11017 11014
10885 10883 10883 10882 10882 10881 10882 10885 10888 10891 10895 10897 10900 10903 10908 10917 10921 10926 10933 10940 10948 10957 10964 10967 10972 10980 10989 10993 10998 11003 11007 11011 11013 11015 11018 11020 11023 11022 11022 11024 11024 11023 11022 11021 11020
10877 10876 10875 10874 10873 10871 10870 10872 10875 10877 10882 10885 10888 10892 10898 10906 10910 10916 10922 10930 10937 10946 10954 10959 10968 10974 10982 10988 10993 10999 11003 11007 11009 11012 11017 11019 11021 11021 11022 11023 11024 11024 11024 11024 11024
10871 10869 10866 10865 10863 10862 10860 10860 10861 10863 10867 10870 10875 10880 10888 10892 10894 10900 10911 10919 10926 10934 10943 10954 10962 10967 10971 10981 10986 10990 10996 11000 11003 11007 11013 11014 11019 11021 11023 11022 11023 11024 11024 11026 11025
10865 10861 10858 10856 10853 10852 10852 10850 10849 10850 10851 10854 10859 10866 10874 10875 10881 10892 10901 10908 10915 10922 10932 10944 10952 10958 10961 10969 10977 10981 10986 10994 10998 11001 11002 11009 11014 11020 11022 11022 11023 11024 11024 11024 11025
10858 10854 10850 10846 10844 10843 10842 10841 10840 10838 10838 10840 10843 10849 10858 10860 10865 10874 10885 10894 10903 10910 10920 10931 10940 10948 10954 10959 10964 10969 10976 10986 10989 10995 11000 11004 11009 11015 11018 11021 11023 11023 11024 11024 11024
10850 10846 10842 10838 10834 10832 10831 10830 10829 10827 10826 10827 10829 10832 10837 10844 10849 10860 10869 10879 10888 10899 10908 10919 10927 10937 10945 10948 10949 10956 10968 10979 10985 10991 10997 11001 11004 11010 11015 11018 11020 11022 11024 11024 11025
10845 10840 10834 10829 10826 10823 10820 10818 10818 10816 10814 10814 10814 10816 10820 10826 10832 10843 10855 10863 10873 10884 10896 10907 10916 10923 10927 10931 10939 10947 10959 10969 10978 10984 10990 10993 10999 11006 11010 11015 11017 11019 11021 11022 11023
10837 10832 10826 10820 10816 10813 10809 10806 10805 10803 10802 10800 10800 10802 10805 10809 10814 10826 10837 10848 10857 10868 10880 10892 10899 10903 10914 10923 10930 10938 10950 10959 10968 10977 10983 10987 10993 11001 11005 11010 11012 11015 11018 11019 11021
10830 10824 10818 10813 10807 10803 10800 10795 10794 10791 10789 10787 10787 10790 10792 10794 10798 10808 10819 10829 10840 10853 10865 10875 10877 10892 10902 10911 10921 10928 10936 10944 10955 10971 10976 10982 10988 10994 10999 11005 11008 11011 11015 11016 11019
10819 10813 10808 10802 10796 10792 10788 10785 10782 10780 10777 10774 10773 10776 10777 10780 10781 10790 10800 10810 10822 10834 10847 10856 10864 10879 10889 10901 10909 10916 10917 10926 10942 10958 10969 10974 10980 10984 10988 10997 11003 11007 11011 11013 11016
10809 10800 10795 10789 10784 10780 10776 10774 10772 10768 10766 10762 10761 10762 10765 10767 10768 10773 10782 10791 10802 10817 10831 10839 10848 10864 10878 10882 10895 10894 10900 10913 10927 10943 10954 10968 10977 10979 10985 10987 10995 11002 11006 11010 11011
10794 10788 10780 10776 10769 10765 10764 10763 10761 10757 10755 10754 10751 10753 10755 10757 10758 10760 10767 10775 10786 10800 10813 10824 10834 10849 10860 10864 10877 10867 10890 10901 10919 10932 10946 10957 10967 10975 10981 10976 10988 10995 10999 11004 11007
10779 10773 10767 10761 10755 10751 10750 10751 10750 10746 10744 10743 10741 10742 10744 10746 10747 10748 10753 10760 10768 10783 10794 10807 10819 10831 10838 10848 10855 10862 10879 10890 10906 10922 10939 10945 10957 10966 10970 10973 10977 10986 10993 10998 11002
10767 10757 10751 10745 10739 10737 10737 10739 10738 10735 10734 10733 10730 10730 10731 10735 10736 10737 10740 10746 10754 10765 10780 10792 10803 10814 10824 10835 10843 10847 10860 10877 10896 10912 10924 10930 10948 10945 10956 10963 10970 10977 10985 10991 10997
10750 10741 10732 10727 10723 10723 10724 10725 10722 10722 10723 10723 10721 10720 10718 10720 10723 10727 10729 10734 10741 10748 10761 10772 10781 10794 10805 10815 10823 10831 10843 10861 10874 10892 10905 10918 10930 10934 10948 10957 10963 10969 10975 10981 10988
10734 10725 10716 10710 10708 10709 10711 10710 10709 10708 10709 10710 10710 10709 10707 10706 10709 10712 10716 10718 10725 10730 10738 10752 10758 10774 10784 10792 10801 10815 10824 10840 10859 10875 10892 10904 10916 10920 10936 10947 10952 10959 10964 10970 10979
10718 10709 10699 10695 10695 10696 10696 10697 10695 10693 10694 10695 10695 10694 10694 10695 10696 10700 10703 10706 10709 10716 10724 10732 10741 10751 10761 10769 10785 10799 10807 10820 10840 10859 10875 10888 10899 10905 10922 10935 10942 10948 10957 10963 10971
10704 10694 10687 10683 10683 10683 10684 10685 10682 10679 10681 10681 10680 10678 10677 10679 10680 10682 10685 10688 10695 10700 10709 10715 10724 10732 10744 10754 10766 10777 10791 10804 10824 10846 10861 10875 10883 10895 10909 10921 10930 10939 10945 10953 10961
10693 10685 10679 10677 10675 10675 10674 10674 10671 10667 10667 10665 10664 10659 10657 10659 10662 10663 10666 10669 10673 10677 10684 10695 10703 10710 10721 10734 10745 10759 10774 10789 10808 10824 10842 10859 10870 10881 10893 10905 10918 10927 10942 10946 10950
10681 10675 10671 10668 10665 10664 10662 10661 10659 10654 10651 10648 10646 10643 10640 10638 10642 10643 10644 10649 10652 10657 10661 10668 10677 10682 10692 10708 10723 10738 10758 10774 10788 10807 10824 10846 10850 10863 10878 10890 10904 10918 10931 10939 10938
10672 10666 10659 10656 10652 10650 10650 10648 10644 10641 10638 10635 10631 10626 10620 10620 10618 10620 10622 10625 10630 10633 10639 10646 10655 10661 10669 10680 10700 10718 10739 10750 10768 10787 10811 10827 10836 10845 10863 10878 10893 10906 10916 10925 10931
10664 10656 10648 10645 10642 10639 10640 10637 10633 10627 10621 10617 10614 10609 10602 10595 10595 10594 10596 10600 10603 10608 10615 10622 10633 10640 10650 10659 10680 10698 10710 10727 10752 10773 10790 10802 10817 10830 10851 10867 10881 10894 10903 10911 10915
10653 10647 10640 10634 10632 10629 10627 10623 10618 10612 10605 10600 10593 10587 10580 10573 10569 10571 10570 10575 10578 10584 10591 10597 10609 10617 10624 10641 10658 10667 10686 10711 10733 10756 10769 10786 10800 10816 10847 10859 10872 10883 10894 10901 10908